Stony Rapids Airport
CYSF : now visible

Airfield :











YOU CAN JOIN US ON...

 
LOGIN :

Register | Disclaimer

   EN    FR    IT 

 









Legend :    VFR   Marginal VFR   IFR   Intensive IFR   Very Intensive IFR
Visi :
Ceiling :
>= 8 km
>= 3000ft
5 to 8 km
1000 to 3000 ft
1500m to 5 km
500 to 1000 ft
800 to 1500m
200 to 500 ft
< 800m
< 200 ft
Symbols :   Thunderstorms  Fog  Heavy snow  Heavy precipitations  Wind > 20 kt






- Airport Elevation : 805 ft
- IATA code : YSF


CYSF - Stony Rapids

CURRENT METAR :
  • 031700Z AUTO 34004KT 320V050 9SM CLR M19/M24 A3032 RMK SLP301

EXPIRED METARs :
  • 031600Z AUTO 00000KT 9SM CLR M22/M25 A3033 RMK SLP305
  • 031500Z AUTO 06003KT 010V090 9SM CLR M25/M28 A3034 RMK SLP309

TAF TAF CYSF
Valid from the 03 at 12:00 until the 04 at 00:00 UTC


031156Z 0312/0324 VRB03KT P6SM FEW200
FM031800 VRB03KT P6SM BKN140
BECMG 0319/0321 28004KT RMK FCST BASED ON AUTO OBS. NXT FCST BY 031800Z



MET'MAP, your aeronautical weather chart ! - Copyright ORBIFLY December 2007 - Disclaimer

ORBIFLY MET'MAP TEAM :

Programming & Development : Alexandra Zaïnal
Concept & original design : Baudouin d'Aumeries
Assistance for programming : Marc-Olivier Méhu
Technical & hardware support : Manuel Goepfert

Contact : metmap@orbifly.com




SOURCES & CREDITS :

   NOAA       Earth
Advisory